DW4070 Weather Reports


time (UTC)temp
C
wind
direction
speed
KPH
gust
KPH
rain 1hr
cm
rain 24hr
cm
rain mn
cm
humidity
%
barometer
mb
20260502163022 13 263 0.0 3.2 0.00 0.13 0.13 66 1013.0
20260502161521 13 236 0.0 9.7 0.00 0.13 0.13 65 1013.1
20260502151514 12 269 0.0 0.0 0.00 0.13 0.13 72 1013.4
20260502130105 10 269 0.0 0.0 0.00 0.13 0.13 91 1014.0
20260502123052 9 269 0.0 0.0 0.00 0.13 0.13 93 1013.9
20260502121600 9 269 0.0 0.0 0.00 0.13 0.13 94 1013.7
20260502120110 8 269 0.0 0.0 0.00 0.13 0.13 94 1013.8
20260502114554 8 269 0.0 0.0 0.00 0.13 0.13 94 1013.9
20260502113108 8 269 0.0 0.0 0.03 0.13 0.13 94 1013.9
20260502111548 8 269 0.0 0.0 0.08 0.13 0.13 94 1013.6
20260502110047 8 269 0.0 0.0 0.13 0.13 0.13 94 1013.4
20260502104543 8 269 0.0 0.0 0.13 0.13 0.13 94 1013.2
20260502103106 8 269 0.0 0.0 0.08 0.08 0.08 94 1013.5
20260502101549 8 269 0.0 0.0 0.05 0.05 0.05 93 1013.6
20260502071534 7 269 0.0 0.0 0.00 0.00 0.00 90 1013.1
20260502070027 7 269 0.0 0.0 0.00 0.00 0.00 89 1013.2
20260502064526 7 269 0.0 0.0 0.00 0.00 0.00 89 1013.1
20260502063025 7 269 0.0 0.0 0.00 0.00 0.00 88 1013.2
20260502061523 8 269 0.0 0.0 0.00 0.00 0.00 89 1013.3
20260502060022 8 269 0.0 0.0 0.00 0.00 0.00 88 1013.4
20260502054521 8 269 0.0 0.0 0.00 0.00 0.00 88 1013.4
20260502053022 8 269 0.0 0.0 0.00 0.00 0.00 88 1013.3
20260502051520 7 269 0.0 0.0 0.00 0.00 0.00 88 1013.3
20260502050017 7 269 0.0 0.0 0.00 0.00 0.00 87 1013.5
20260502044518 7 269 0.0 0.0 0.00 0.00 0.00 87 1013.6
20260502043018 7 269 0.0 0.0 0.00 0.00 0.00 88 1013.8
20260502041511 7 269 0.0 0.0 0.00 0.00 0.00 88 1013.6
20260502040010 7 269 0.0 0.0 0.00 0.00 0.00 86 1013.6
20260502034510 7 269 0.0 0.0 0.00 0.00 0.00 86 1013.5
20260502033010 7 269 0.0 0.0 0.00 0.00 0.00 85 1013.6
20260502031509 7 269 0.0 0.0 0.00 0.00 0.00 84 1013.9
20260502030009 8 269 0.0 0.0 0.00 0.00 0.00 82 1013.9
20260502024508 8 269 0.0 0.0 0.00 0.00 0.00 80 1014.0
20260502023007 8 269 0.0 0.0 0.00 0.00 0.00 79 1013.8
20260502021506 9 269 0.0 0.0 0.00 0.00 0.00 77 1013.9
20260502020005 10 269 0.0 0.0 0.00 0.00 0.00 76 1013.9
20260502014504 10 269 0.0 0.0 0.00 0.00 0.00 73 1013.9
20260502013004 11 269 0.0 0.0 0.00 0.00 0.00 71 1013.7
20260502011503 11 269 0.0 0.0 0.00 0.00 0.00 69 1013.7
20260502010003 11 269 0.0 0.0 0.00 0.00 0.00 67 1013.6
20260502004502 12 269 0.0 3.2 0.00 0.00 0.00 65 1013.5
20260502003001 12 269 0.0 3.2 0.00 0.00 0.00 64 1013.3
20260502001503 12 269 0.0 4.8 0.00 0.00 0.00 64 1013.1
20260502000001 12 269 0.0 4.8 0.00 0.00 0.00 66 1012.9
20260501234601 12 269 0.0 4.8 0.00 0.00 0.00 63 1012.8
20260501233103 12 269 1.6 4.8 0.00 0.00 0.00 61 1012.5
20260501231559 12 262 3.2 8.0 0.00 0.00 0.00 60 1012.5
20260501224559 13 213 3.2 9.7 0.00 0.00 0.00 55 1012.1
20260501223111 13 279 1.6 11.3 0.00 0.00 0.00 53 1012.1
20260501221557 15 233 3.2 12.9 0.00 0.00 0.00 51 1012.1
20260501220057 15 187 1.6 9.7 0.00 0.00 0.00 48 1012.0
20260501214556 16 237 3.2 14.5 0.00 0.00 0.00 46 1011.8
20260501213107 16 275 1.6 6.4 0.00 0.00 0.00 40 1011.6
20260501211558 16 275 0.0 9.7 0.00 0.00 0.00 41 1011.4
20260501210052 17 263 1.6 12.9 0.00 0.00 0.00 37 1011.5
20260501204601 17 270 3.2 8.0 0.00 0.00 0.00 36 1011.5
20260501203100 17 252 0.0 4.8 0.00 0.00 0.00 39 1011.5
20260501201549 17 164 1.6 6.4 0.00 0.00 0.00 36 1011.6
20260501200048 17 209 3.2 6.4 0.00 0.00 0.00 34 1011.4
20260501194545 18 263 1.6 6.4 0.00 0.00 0.00 32 1011.7
20260501193048 18 198 1.6 6.4 0.00 0.00 0.00 35 1012.0
20260501191543 18 141 3.2 11.3 0.00 0.00 0.00 38 1012.2
20260501190041 17 263 3.2 16.1 0.00 0.00 0.00 37 1012.2
20260501184539 17 281 4.8 14.5 0.00 0.00 0.00 37 1012.5
20260501183037 17 281 1.6 8.0 0.00 0.00 0.00 38 1012.7
20260501181535 17 281 1.6 4.8 0.00 0.00 0.00 36 1012.8
20260501180036 17 281 1.6 9.7 0.00 0.00 0.00 40 1012.8
20260501174533 17 281 3.2 8.0 0.00 0.00 0.00 35 1013.0
20260501173034 16 284 0.0 9.7 0.00 0.00 0.00 42 1013.1
20260501171526 16 283 1.6 9.7 0.00 0.00 0.00 36 1013.2
20260501170032 16 5 1.6 8.0 0.00 0.00 0.00 41 1013.1
20260501164522 15 94 0.0 3.2 0.00 0.00 0.00 41 1013.4